[Iaude] MPEC G164: 2024 GX3 [a=1.03,e=0.28,i=10.2,H=29.6]
    mpec at cfa.harvard.edu 
    mpec at cfa.harvard.edu
       
    Thu Apr 11 19:48:10 EDT 2024
    
    
  
M.P.E.C. 2024-G164                               Issued 2024 April 11, 23:46 UT
     The Minor Planet Electronic Circulars contain information on unusual
         minor planets, routine data on comets and natural satellites,
         and occasional editorial announcements.  They are published
    on behalf of Division F of the International Astronomical Union by the
          Minor Planet Center, Smithsonian Astrophysical Observatory,
                          Cambridge, MA 02138, U.S.A.
			  
             Prepared using the Tamkin Foundation Computer Network
                              MPC at CFA.HARVARD.EDU
            URL https://www.minorplanetcenter.net/    ISSN 1523-6714
                                    2024 GX3                                    
Observations:
     K24G03X*1C2024 04 11.34830713 41 09.035+23 57 00.83         20.18GVEG164703
     K24G03X 1C2024 04 11.35064013 41 09.863+23 56 28.43         20.11GVEG164703
     K24G03X 1C2024 04 11.35295813 41 10.680+23 55 58.15         20.00GVEG164703
     K24G03X 1C2024 04 11.35527413 41 11.580+23 55 26.33         19.56GVEG164703
     K24G03X  C2024 04 11.38687913 41 18.762+23 47 33.60         19.6 GVEG164H01
     K24G03X  C2024 04 11.39210813 41 20.902+23 46 24.25         20.0 GVEG164H01
     K24G03X  C2024 04 11.40205413 41 25.049+23 44 12.76         19.5 GVEG164H01
     K24G03X  C2024 04 11.40899713 41 27.989+23 42 41.79         19.5 GVEG164H01
     K24G03X mC2024 04 11.44014813 41 44.916+23 36 54.76         19.80GVEG164I52
     K24G03X mC2024 04 11.44039013 41 45.020+23 36 52.34         19.71GVEG164I52
     K24G03X mC2024 04 11.44063513 41 45.121+23 36 48.92         19.69GVEG164I52
     K24G03X mC2024 04 11.44087413 41 45.226+23 36 45.40         19.97GVEG164I52
     K24G03X KB2024 04 11.86011213 47 30.24 +22 38 10.5          19.7 GXEG164958
     K24G03X KB2024 04 11.86718313 47 31.62 +22 37 40.9          19.9 GXEG164958
     K24G03X KB2024 04 11.86749013 47 30.70 +22 37 31.3          20.3 GXEG164I93
     K24G03X KB2024 04 11.87144913 47 31.35 +22 37 15.5          19.7 GXEG164I93
     K24G03X KB2024 04 11.87540213 47 32.02 +22 36 59.0          20.6 GXEG164I93
     K24G03X KB2024 04 11.87874913 47 33.58 +22 36 56.2          19.7 GXEG164958
     K24G03X KB2024 04 11.88347113 47 34.35 +22 36 36.3          19.6 GXEG164958
     K24G03X KB2024 04 11.88954 13 47 23.42 +22 36 24.6          20.3 RZEG164106
     K24G03X KB2024 04 11.89546 13 47 23.99 +22 35 58.5          20.1 RZEG164106
     K24G03X KB2024 04 11.90102 13 47 24.55 +22 35 33.3          19.9 RZEG164106
     K24G03X KB2024 04 11.90593 13 47 24.98 +22 35 11.4          20.1 RZEG164106
     K24G03X KC2024 04 11.91443313 47 29.56 +22 34 24.8          20.2 GVEG164587
     K24G03X KC2024 04 11.93491413 47 31.06 +22 32 53.3                VEG164587
Observer details:
106 Crni Vrh.  Observer H. Mikuz.  0.60-m f/3.3 reflector + CMO.
587 Sormano.  Observers F. Manca, A. Testa.  Measurer F. Manca.  0.5-m f/6.8
    reflector + CCD.
703 Catalina Sky Survey.  Observer J. K. Hogan.  Measurers T. Beuden, V. F.
    Carvajal, D. Fay, J. B. Fazekas, D. C. Fuls, A. R. Gibbs, A. D. Grauer, H.
    Groeller, J. K. Hogan, R. A. Kowalski, S. M. Larson, G. J. Leonard, D.
    Rankin, R. L. Seaman, F. C. Shelly, K. W. Wierzchos.  0.68-m Schmidt + 10K
    CCD.
958 Observatoire de Dax.  Observer P. Dupouy.  0.50-m f/4.5 Reflector + CMO.
H01 Magdalena Ridge Observatory, Socorro.  Observers W. H. Ryan, E. V. Ryan.
    Measurer W. H. Ryan.  2.4-m f/8.9 Ritchey-Chretien + CCD.
I52 Steward Observatory, Mt. Lemmon Station.  Observers V. F. Carvajal, G. J.
    Leonard.  Measurers T. Beuden, V. F. Carvajal, D. Fay, J. B. Fazekas, D.
    C. Fuls, A. R. Gibbs, A. D. Grauer, H. Groeller, J. K. Hogan, R. A.
    Kowalski, S. M. Larson, G. J. Leonard, D. Rankin, R. L. Seaman, F. C.
    Shelly, K. W. Wierzchos.  1.0-m prime focus + CCD.
I93 St Pardon de Conques.  Observer F. Losse.  0.40-m f/3.7 reflector + CCD.
Orbital elements:
2024 GX3                                                 Earth MOID = 0.0002 AU
Epoch 2024 Mar. 31.0 TT = JDT 2460400.5                 Veres                   
M  58.24396              (2000.0)            P               Q                  
n   0.94051569     Peri.  259.35040     -0.16676145     -0.98402179             
a   1.0317125      Node   200.56817     +0.95976950     -0.14750438             
e   0.2828187      Incl.   10.22819     +0.22590513     -0.09971750             
P   1.05           H   29.62          G   0.15           U   7                  
Residuals in seconds of arc
240411 703  0.2+  0.8+    240411 I52  0.0   0.6+    240411 958  0.7-  0.4-
240411 703  0.2-  0.3-    240411 I52  0.1-  0.3+    240411 106  0.4+  0.1-
240411 703  0.6-  0.5+    240411 I52  0.1-  0.2-    240411 106  0.0   0.1+
240411 703  0.1+  0.3-    240411 958  0.9-  0.5+    240411 106  0.6+  0.3-
240411 H01  0.1+  0.0     240411 958  0.5-  0.9-    240411 106  0.5+  0.1-
240411 H01  0.1+  0.0     240411 I93  1.1+  0.1+    240411 587  0.5+  0.6+
240411 H01  0.2+  0.2-    240411 I93  0.3+  0.2+    240411 587  0.4-  0.0
240411 H01  0.0   0.0     240411 I93  0.2+  0.4-
240411 I52  0.0   0.1-    240411 958  1.0-  0.5+
Ephemeris:
2024 GX3                 a,e,i = 1.03, 0.28, 10                  q = 0.7399
Date    TT    R. A. (2000) Decl.     Delta      r    Elong.  Phase     V
2024 03 12    01 28 21.9 -21 55 09   0.1715  0.8577    34.4   139.1    32.2
...
2024 03 27    01 37 05.7 -23 57 11   0.08062 0.9304    32.0   145.4    31.6
...
2024 04 04    01 39 33.7 -24 15 35   0.03540 0.9703    32.0   146.9    30.2
...
2024 04 10    02 18 46.6 -14 42 27   0.0020501.0000    27.6   152.3    25.1
2024 04 11    13 32 50.0 +25 55 38   0.0036751.0052   145.6    34.3    18.9
2024 04 12    13 47 36.5 +22 34 13   0.0092291.0103   148.2    31.6    20.8
...
2024 04 18    13 54 56.9 +20 34 51   0.04270 1.0407   148.5    30.3    24.2
...
2024 04 26    13 56 00.7 +19 41 02   0.08812 1.0808   146.5    30.9    25.8
...
2024 05 11    13 58 13.4 +17 22 56   0.1783  1.1529   140.3    34.0    27.6
M. P. C. Staff               (C) Copyright 2024 MPC           M.P.E.C. 2024-G164
    
    
More information about the Iaude
mailing list